When you browse on this site, cookies collect data to enhance your experience and personalize the content and advertising you see.
Visit our Privacy Policy to learn more. By continuing to use the site, you agree to this use of cookies and data.
  • En España
  • Lista de países
  • Para 7 días
  • Temperatura del agua
  • Mapa Satelital
  • El tiempo en el mapa
  • Informadores
  • user-avatar
    Iniciar sesión

    Tiempo cada hora Rovinj

    Hoy, 16 Junio, Domingo

    Tiempo Temperatura Precipitaciones Viento Presión Humedad
    00:00 +24°C° 0 mm 1 mps 758 mmHg 80%
    01:00 +23°C° 0 mm 2 mps 758 mmHg 82%
    02:00 +23°C° 0 mm 2 mps 758 mmHg 84%
    03:00 +23°C° 0 mm 2 mps 758 mmHg 87%
    04:00 +21°C° 0 mm 2 mps 758 mmHg 90%
    05:00 +24°C° 0 mm 3 mps 758 mmHg 85%
    06:00 +25°C° 0 mm 3 mps 758 mmHg 80%
    07:00 +27°C° 0 mm 4 mps 758 mmHg 74%
    08:00 +28°C° 0 mm 4 mps 758 mmHg 67%
    09:00 +29°C° 0 mm 4 mps 758 mmHg 61%
    10:00 +30°C° 0 mm 4 mps 758 mmHg 54%
    11:00 +32°C° 0 mm 4 mps 758 mmHg 51%
    12:00 +32°C° 0 mm 4 mps 758 mmHg 48%
    13:00 +33°C° 0 mm 3 mps 758 mmHg 45%
    14:00 +32°C° 0 mm 4 mps 758 mmHg 47%
    15:00 +32°C° 0 mm 4 mps 758 mmHg 48%
    16:00 +30°C° 0 mm 4 mps 757 mmHg 50%
    17:00 +29°C° 0 mm 3 mps 758 mmHg 57%
    18:00 +27°C° 0 mm 2 mps 758 mmHg 65%
    19:00 +26°C° 0 mm 2 mps 758 mmHg 73%
    20:00 +25°C° 0 mm 2 mps 759 mmHg 74%
    21:00 +24°C° 0 mm 2 mps 759 mmHg 76%
    22:00 +23°C° 0 mm 2 mps 759 mmHg 77%
    23:00 +23°C° 0 mm 2 mps 760 mmHg 76%

    Mañana, 17 Junio, Lunes

    Tiempo Temperatura Precipitaciones Viento Presión Humedad
    00:00 +21°C° 0 mm 2 mps 760 mmHg 75%
    01:00 +21°C° 0 mm 3 mps 760 mmHg 75%
    02:00 +21°C° 0 mm 3 mps 760 mmHg 75%
    03:00 +21°C° 0 mm 4 mps 760 mmHg 76%
    04:00 +21°C° 0 mm 4 mps 760 mmHg 76%
    05:00 +22°C° 0 mm 4 mps 760 mmHg 73%
    06:00 +24°C° 0 mm 3 mps 760 mmHg 69%
    07:00 +25°C° 0 mm 3 mps 760 mmHg 66%
    08:00 +27°C° 0 mm 3 mps 760 mmHg 60%
    09:00 +28°C° 0 mm 3 mps 760 mmHg 54%
    10:00 +30°C° 0 mm 3 mps 760 mmHg 47%
    11:00 +30°C° 0 mm 3 mps 760 mmHg 48%
    12:00 +30°C° 0 mm 3 mps 760 mmHg 48%
    13:00 +30°C° 0 mm 3 mps 760 mmHg 48%
    14:00 +30°C° 0 mm 3 mps 760 mmHg 49%
    15:00 +30°C° 0 mm 3 mps 759 mmHg 50%
    16:00 +30°C° 0 mm 3 mps 759 mmHg 51%
    17:00 +28°C° 0.2 mm 3 mps 759 mmHg 59%
    18:00 +27°C° 0.2 mm 2 mps 759 mmHg 67%
    19:00 +26°C° 0.2 mm 2 mps 759 mmHg 74%
    20:00 +25°C° 0 mm 2 mps 759 mmHg 76%
    21:00 +24°C° 0 mm 2 mps 759 mmHg 78%
    22:00 +22°C° 0 mm 3 mps 760 mmHg 80%
    23:00 +21°C° 0 mm 2 mps 760 mmHg 80%

    Pasado mañana, 18 Junio, Martes

    Tiempo Temperatura Precipitaciones Viento Presión Humedad
    00:00 +21°C° 0 mm 2 mps 760 mmHg 81%
    01:00 +21°C° 0 mm 2 mps 759 mmHg 81%
    02:00 +20°C° 0 mm 2 mps 759 mmHg 82%
    03:00 +20°C° 0 mm 2 mps 759 mmHg 82%
    04:00 +20°C° 0 mm 2 mps 759 mmHg 83%
    05:00 +21°C° 0 mm 2 mps 759 mmHg 79%
    06:00 +24°C° 0 mm 2 mps 760 mmHg 75%
    07:00 +25°C° 0 mm 2 mps 760 mmHg 72%
    08:00 +27°C° 0 mm 2 mps 760 mmHg 66%
    09:00 +28°C° 0 mm 2 mps 760 mmHg 60%
    10:00 +30°C° 0 mm 2 mps 760 mmHg 54%
    11:00 +30°C° 0.1 mm 2 mps 759 mmHg 56%
    12:00 +29°C° 0.1 mm 2 mps 759 mmHg 58%
    13:00 +29°C° 0.1 mm 2 mps 759 mmHg 60%
    14:00 +29°C° 0.1 mm 2 mps 759 mmHg 59%
    15:00 +30°C° 0.1 mm 2 mps 758 mmHg 58%
    16:00 +30°C° 0.1 mm 1 mps 758 mmHg 57%
    17:00 +28°C° 0 mm 1 mps 758 mmHg 65%
    18:00 +27°C° 0 mm 1 mps 758 mmHg 72%
    19:00 +24°C° 0 mm 0 mps 758 mmHg 80%
    20:00 +23°C° 0 mm 0 mps 758 mmHg 83%
    21:00 +23°C° 0 mm 1 mps 758 mmHg 85%
    22:00 +22°C° 0 mm 1 mps 758 mmHg 88%
    23:00 +22°C° 0 mm 1 mps 758 mmHg 87%

    19 Junio, Miércoles

    Tiempo Temperatura Precipitaciones Viento Presión Humedad
    00:00 +22°C° 0 mm 1 mps 758 mmHg 86%
    01:00 +21°C° 0 mm 1 mps 758 mmHg 84%
    02:00 +21°C° 0 mm 1 mps 758 mmHg 84%
    03:00 +21°C° 0 mm 1 mps 758 mmHg 84%
    04:00 +21°C° 0 mm 1 mps 758 mmHg 83%
    05:00 +22°C° 0 mm 1 mps 758 mmHg 80%
    06:00 +22°C° 0 mm 0 mps 758 mmHg 76%
    07:00 +23°C° 0 mm 0 mps 758 mmHg 73%
    08:00 +27°C° 0 mm 1 mps 758 mmHg 66%
    09:00 +28°C° 0 mm 1 mps 758 mmHg 60%
    10:00 +30°C° 0 mm 1 mps 758 mmHg 53%
    11:00 +30°C° 0.1 mm 1 mps 758 mmHg 54%
    12:00 +30°C° 0.1 mm 2 mps 758 mmHg 55%
    13:00 +30°C° 0.1 mm 2 mps 757 mmHg 57%
    14:00 +30°C° 0 mm 2 mps 757 mmHg 57%
    15:00 +29°C° 0 mm 2 mps 757 mmHg 57%
    16:00 +29°C° 0 mm 2 mps 757 mmHg 57%
    17:00 +28°C° 0 mm 2 mps 757 mmHg 64%
    18:00 +27°C° 0 mm 2 mps 757 mmHg 71%
    19:00 +25°C° 0 mm 2 mps 757 mmHg 77%
    20:00 +24°C° 0 mm 2 mps 757 mmHg 82%
    21:00 +23°C° 0 mm 2 mps 757 mmHg 86%
    22:00 +21°C° 0 mm 2 mps 758 mmHg 90%
    23:00 +21°C° 0.1 mm 2 mps 758 mmHg 90%

    20 Junio, Jueves

    Tiempo Temperatura Precipitaciones Viento Presión Humedad
    00:00 +21°C° 0.1 mm 2 mps 757 mmHg 89%
    01:00 +20°C° 0.1 mm 2 mps 757 mmHg 89%
    02:00 +20°C° 0 mm 2 mps 757 mmHg 89%
    03:00 +20°C° 0 mm 2 mps 757 mmHg 89%
    04:00 +20°C° 0 mm 2 mps 757 mmHg 90%
    05:00 +22°C° 0 mm 1 mps 757 mmHg 86%
    06:00 +23°C° 0 mm 1 mps 758 mmHg 83%
    07:00 +25°C° 0 mm 1 mps 758 mmHg 80%
    08:00 +26°C° 0 mm 1 mps 758 mmHg 72%
    09:00 +28°C° 0 mm 1 mps 758 mmHg 63%
    10:00 +30°C° 0 mm 1 mps 758 mmHg 55%
    11:00 +30°C° 0 mm 2 mps 758 mmHg 55%
    12:00 +30°C° 0 mm 2 mps 758 mmHg 55%
    13:00 +30°C° 0 mm 3 mps 757 mmHg 55%
    14:00 +30°C° 0 mm 2 mps 757 mmHg 55%
    15:00 +30°C° 0 mm 2 mps 757 mmHg 56%
    16:00 +29°C° 0 mm 2 mps 756 mmHg 56%
    17:00 +28°C° 0 mm 2 mps 756 mmHg 64%
    18:00 +27°C° 0 mm 2 mps 757 mmHg 71%
    19:00 +25°C° 0 mm 2 mps 757 mmHg 79%
    20:00 +24°C° 0 mm 2 mps 757 mmHg 82%
    21:00 +22°C° 0 mm 3 mps 757 mmHg 85%
    22:00 +20°C° 0 mm 3 mps 757 mmHg 88%
    23:00 +20°C° 0 mm 3 mps 757 mmHg 86%

    21 Junio, Viernes

    Tiempo Temperatura Precipitaciones Viento Presión Humedad
    00:00 +20°C° 0 mm 3 mps 757 mmHg 85%
    01:00 +20°C° 0 mm 3 mps 757 mmHg 83%
    02:00 +19°C° 0 mm 3 mps 757 mmHg 84%
    03:00 +19°C° 0 mm 3 mps 757 mmHg 84%
    04:00 +19°C° 0 mm 3 mps 758 mmHg 85%
    05:00 +21°C° 0 mm 3 mps 758 mmHg 80%
    06:00 +22°C° 0 mm 3 mps 758 mmHg 76%
    07:00 +25°C° 0 mm 2 mps 758 mmHg 71%
    08:00 +26°C° 0 mm 3 mps 758 mmHg 65%
    09:00 +28°C° 0 mm 3 mps 759 mmHg 58%
    10:00 +29°C° 0 mm 3 mps 759 mmHg 52%
    11:00 +30°C° 0 mm 3 mps 759 mmHg 51%
    12:00 +30°C° 0 mm 3 mps 758 mmHg 50%
    13:00 +30°C° 0 mm 2 mps 758 mmHg 49%
    14:00 +30°C° 0 mm 3 mps 758 mmHg 51%
    15:00 +29°C° 0 mm 3 mps 758 mmHg 53%
    16:00 +29°C° 0 mm 3 mps 758 mmHg 55%
    17:00 +27°C° 0 mm 3 mps 758 mmHg 62%
    18:00 +26°C° 0 mm 3 mps 758 mmHg 68%
    19:00 +25°C° 0 mm 3 mps 758 mmHg 75%
    20:00 +24°C° 0 mm 3 mps 758 mmHg 73%
    21:00 +22°C° 0 mm 3 mps 759 mmHg 70%
    22:00 +21°C° 0 mm 3 mps 759 mmHg 67%
    23:00 +21°C° 0 mm 3 mps 759 mmHg 63%
    Mostrar más